WBANNO,USDM_WEEK,LONGITUDE,LATITUDE,SMVWC_5_CM_MEAN,SMANOM_5_CM_MEAN,SMPERC_5_CM_30COUNTS,SMPERC_5_CM_70COUNTS,SMVWC_10_CM_MEAN,SMANOM_10_CM_MEAN,SMPERC_10_CM_30COUNTS,SMPERC_10_CM_70COUNTS,SMVWC_20_CM_MEAN,SMANOM_20_CM_MEAN,SMPERC_20_CM_30COUNTS,SMPERC_20_CM_70COUNTS,SMVWC_50_CM_MEAN,SMANOM_50_CM_MEAN,SMPERC_50_CM_30COUNTS,SMPERC_50_CM_70COUNTS,SMVWC_100_CM_MEAN,SMANOM_100_CM_MEAN,SMPERC_100_CM_30COUNTS,SMPERC_100_CM_70COUNTS,SMVWC_TOP_CM_MEAN,SMANOM_TOP_CM_MEAN,SMPERC_TOP_CM_30COUNTS,SMPERC_TOP_CM_70COUNTS,SMVWC_COLUMN_CM_MEAN,SMANOM_COLUMN_CM_MEAN,SMPERC_COLUMN_CM_30COUNTS,SMPERC_COLUMN_CM_70COUNTS
53927,20090531,-97.11,36.13,,,,,,,,,,,,,,,,,,,,,,,,,,,,
53927,20090601,-97.11,36.13,,,,,,,,,,,,,,,,,,,,,,,,,,,,
53927,20090602,-97.11,36.13,,,,,,,,,,,,,,,,,,,,,,,,,,,,
53927,20090603,-97.11,36.13,,,,,,,,,,,,,,,,,,,,,,,,,,,,
53927,20090604,-97.11,36.13,,,,,,,,,,,,,,,,,,,,,,,,,,,,
53927,20090605,-97.11,36.13,,,,,,,,,,,,,,,,,,,,,,,,,,,,
53927,20090606,-97.11,36.13,0.116,-0.61,1,0,0.097,-0.91,1,0,0.193,-0.6,1,0,0.284,-0.15,0.032,0,,,,,0.106,-0.78,1,0,,,,
53927,20090607,-97.11,36.13,0.115,-0.62,1,0,0.097,-0.9,1,0,0.193,-0.6,1,0,0.284,-0.13,0,0,,,,,0.106,-0.78,1,0,,,,
53927,20090608,-97.11,36.13,0.113,-0.62,1,0,0.096,-0.89,1,0,0.192,-0.59,1,0,0.284,-0.13,0,0,,,,,0.105,-0.77,1,0,,,,
53927,20090609,-97.11,36.13,0.112,-0.62,1,0,0.096,-0.88,1,0,0.191,-0.58,1,0,0.283,-0.12,0,0,,,,,0.104,-0.77,1,0,,,,
53927,20090610,-97.11,36.13,0.112,-0.61,1,0,0.096,-0.86,1,0,0.191,-0.57,1,0,0.283,-0.12,0,0,,,,,0.104,-0.76,1,0,,,,
53927,20090611,-97.11,36.13,0.116,-0.57,0.911,0,0.104,-0.79,0.911,0,0.191,-0.56,1,0,0.283,-0.11,0,0,,,,,0.11,-0.7,0.911,0,,,,
53927,20090612,-97.11,36.13,0.125,-0.49,0.768,0,0.114,-0.69,0.768,0,0.19,-0.54,0.988,0,0.283,-0.11,0,0,,,,,0.119,-0.6,0.768,0,,,,
53927,20090613,-97.11,36.13,0.146,-0.29,0.625,0.125,0.138,-0.48,0.625,0.125,0.198,-0.45,0.857,0,0.282,-0.11,0,0,,,,,0.142,-0.39,0.625,0.125,,,,
53927,20090614,-97.11,36.13,0.169,-0.09,0.482,0.268,0.16,-0.27,0.482,0.268,0.206,-0.34,0.714,0,0.282,-0.1,0,0,,,,,0.164,-0.19,0.482,0.268,,,,
53927,20090615,-97.11,36.13,0.193,0.13,0.339,0.411,0.184,-0.06,0.339,0.411,0.216,-0.23,0.571,0,0.282,-0.1,0,0,,,,,0.188,0.03,0.339,0.411,,,,
53927,20090616,-97.11,36.13,0.217,0.35,0.196,0.554,0.205,0.14,0.196,0.554,0.225,-0.11,0.429,0.024,0.282,-0.09,0,0,,,,,0.211,0.25,0.196,0.554,,,,
53927,20090617,-97.11,36.13,0.239,0.56,0.054,0.696,0.225,0.32,0.054,0.69,0.234,0,0.286,0.054,0.282,-0.08,0,0,,,,,0.232,0.44,0.054,0.696,,,,
53927,20090618,-97.11,36.13,0.256,0.73,0,0.839,0.236,0.43,0,0.69,0.243,0.11,0.143,0.06,0.282,-0.08,0,0,,,,,0.246,0.58,0,0.839,,,,
53927,20090619,-97.11,36.13,0.268,0.85,0,0.982,0.242,0.5,0,0.69,0.25,0.21,0.012,0.06,0.281,-0.07,0,0,,,,,0.255,0.68,0,0.982,,,,
53927,20090620,-97.11,36.13,0.265,0.85,0,1,0.233,0.45,0,0.565,0.249,0.22,0,0.06,0.281,-0.06,0,0,,,,,0.249,0.65,0,1,,,,
53927,20090621,-97.11,36.13,0.261,0.84,0,1,0.226,0.41,0,0.423,0.246,0.22,0,0.06,0.28,-0.06,0,0,,,,,0.244,0.63,0,0.994,,,,
53927,20090622,-97.11,36.13,0.255,0.82,0,1,0.216,0.35,0,0.28,0.242,0.2,0,0.06,0.28,-0.05,0,0,,,,,0.236,0.58,0,0.911,,,,
53927,20090623,-97.11,36.13,0.248,0.78,0,1,0.206,0.29,0,0.137,0.237,0.18,0,0.036,0.279,-0.05,0,0,,,,,0.227,0.53,0,0.768,,,,
53927,20090624,-97.11,36.13,0.24,0.73,0,0.994,0.195,0.22,0,0,0.232,0.15,0,0.006,0.278,-0.05,0,0,,,,,0.218,0.47,0,0.625,,,,
53927,20090625,-97.11,36.13,0.231,0.67,0,0.857,0.185,0.15,0,0,0.227,0.13,0,0,0.278,-0.05,0,0,,,,,0.208,0.41,0,0.482,,,,
53927,20090626,-97.11,36.13,0.22,0.59,0,0.714,0.175,0.09,0,0,0.222,0.1,0,0,0.277,-0.05,0,0,,,,,0.198,0.34,0,0.339,,,,
53927,20090627,-97.11,36.13,0.207,0.48,0,0.571,0.165,0.02,0,0,0.217,0.08,0,0,0.275,-0.05,0,0,,,,,0.186,0.25,0,0.196,,,,
53927,20090628,-97.11,36.13,0.192,0.36,0,0.429,0.154,-0.05,0,0,0.213,0.06,0,0,0.274,-0.05,0,0,,,,,0.173,0.16,0,0.06,,,,
53927,20090629,-97.11,36.13,0.182,0.27,0,0.286,0.148,-0.09,0,0,0.208,0.03,0,0,0.273,-0.05,0,0,,,,,0.165,0.1,0,0,,,,
53927,20090630,-97.11,36.13,0.172,0.19,0,0.143,0.142,-0.12,0,0,0.204,0,0,0,0.272,-0.04,0,0,,,,,0.157,0.04,0,0,,,,
53927,20090701,-97.11,36.13,0.163,0.11,0,0.006,0.137,-0.16,0,0,0.199,-0.03,0,0,0.27,-0.04,0,0,,,,,0.15,-0.02,0,0,,,,
53927,20090702,-97.11,36.13,0.155,0.03,0,0,0.132,-0.19,0,0,0.195,-0.05,0,0,0.269,-0.03,0,0,,,,,0.143,-0.07,0,0,,,,
53927,20090703,-97.11,36.13,0.147,-0.03,0,0,0.127,-0.22,0.048,0,0.191,-0.08,0,0,0.267,-0.02,0,0,,,,,0.137,-0.12,0,0,,,,
53927,20090704,-97.11,36.13,0.142,-0.08,0,0,0.123,-0.24,0.19,0,0.187,-0.1,0,0,0.266,-0.01,0,0,,,,,0.133,-0.15,0.054,0,,,,
53927,20090705,-97.11,36.13,0.15,-0.01,0,0.065,0.127,-0.2,0.22,0,0.184,-0.13,0,0,0.264,0,0,0,,,,,0.139,-0.1,0.06,0,,,,
53927,20090706,-97.11,36.13,0.155,0.03,0,0.101,0.131,-0.17,0.22,0,0.181,-0.14,0,0,0.262,0.01,0,0,,,,,0.143,-0.06,0.06,0,,,,
53927,20090707,-97.11,36.13,0.16,0.07,0,0.101,0.133,-0.15,0.22,0,0.179,-0.15,0,0,0.261,0.02,0,0,,,,,0.147,-0.04,0.06,0,,,,
53927,20090708,-97.11,36.13,0.164,0.11,0,0.101,0.134,-0.14,0.22,0,0.176,-0.16,0,0,0.259,0.03,0,0,,,,,0.149,-0.02,0.06,0,,,,
53927,20090709,-97.11,36.13,0.178,0.24,0,0.22,0.149,-0.01,0.22,0.113,0.177,-0.14,0,0,0.257,0.04,0,0,,,,,0.164,0.12,0.06,0.119,,,,
53927,20090710,-97.11,36.13,0.194,0.38,0,0.363,0.164,0.12,0.173,0.256,0.179,-0.11,0,0,0.254,0.05,0,0,,,,,0.179,0.26,0.06,0.262,,,,
53927,20090711,-97.11,36.13,0.206,0.5,0,0.5,0.175,0.22,0.03,0.268,0.181,-0.08,0,0,0.252,0.06,0,0,,,,,0.191,0.36,0.006,0.315,,,,
53927,20090712,-97.11,36.13,0.203,0.49,0,0.44,0.173,0.21,0,0.268,0.182,-0.05,0,0,0.25,0.07,0,0,,,,,0.188,0.35,0,0.315,,,,
53927,20090713,-97.11,36.13,0.197,0.44,0,0.405,0.167,0.16,0,0.268,0.182,-0.03,0,0,0.247,0.07,0,0,,,,,0.182,0.3,0,0.315,,,,
53927,20090714,-97.11,36.13,0.19,0.4,0,0.405,0.161,0.12,0,0.268,0.181,-0.02,0,0,0.242,0.06,0,0,,,,,0.176,0.26,0,0.315,,,,
53927,20090715,-97.11,36.13,0.185,0.35,0,0.405,0.156,0.09,0.113,0.268,0.18,-0.02,0,0,0.237,0.04,0,0,,,,,0.17,0.22,0,0.315,,,,
53927,20090716,-97.11,36.13,0.172,0.24,0,0.31,0.143,-0.02,0.226,0.185,0.177,-0.03,0,0.012,0.231,0.01,0,0,,,,,0.157,0.11,0.006,0.226,,,,
53927,20090717,-97.11,36.13,0.177,0.3,0,0.31,0.15,0.04,0.226,0.185,0.184,0.04,0,0.155,0.224,-0.02,0,0,,,,,0.164,0.17,0.006,0.226,,,,
53927,20090718,-97.11,36.13,0.185,0.36,0,0.315,0.157,0.1,0.226,0.315,0.191,0.11,0,0.298,0.217,-0.05,0,0,,,,,0.171,0.24,0.006,0.315,,,,
53927,20090719,-97.11,36.13,0.194,0.45,0,0.452,0.165,0.18,0.226,0.381,0.197,0.18,0,0.405,0.211,-0.08,0,0,,,,,0.18,0.32,0.006,0.458,,,,
53927,20090720,-97.11,36.13,0.203,0.52,0,0.595,0.173,0.25,0.226,0.381,0.203,0.23,0,0.405,0.205,-0.11,0,0,,,,,0.188,0.39,0.006,0.524,,,,
53927,20090721,-97.11,36.13,0.213,0.62,0,0.685,0.182,0.32,0.226,0.405,0.208,0.28,0,0.405,0.2,-0.13,0,0,,,,,0.197,0.48,0.006,0.548,,,,
53927,20090722,-97.11,36.13,0.233,0.81,0,0.827,0.2,0.48,0.113,0.548,0.214,0.34,0,0.405,0.195,-0.15,0,0,,,,,0.216,0.66,0.006,0.69,,,,
53927,20090723,-97.11,36.13,0.246,0.94,0,0.946,0.21,0.57,0,0.637,0.219,0.39,0,0.393,0.192,-0.16,0,0,,,,,0.228,0.77,0,0.804,,,,
53927,20090724,-97.11,36.13,0.238,0.88,0,0.946,0.196,0.47,0,0.494,0.212,0.33,0,0.25,0.188,-0.17,0.024,0,,,,,0.217,0.68,0,0.756,,,,
53927,20090725,-97.11,36.13,0.228,0.8,0,0.905,0.184,0.37,0,0.351,0.205,0.28,0,0.107,0.185,-0.19,0.095,0,,,,,0.206,0.59,0,0.613,,,,
53927,20090726,-97.11,36.13,0.218,0.73,0,0.762,0.173,0.27,0,0.286,0.198,0.22,0,0,0.181,-0.2,0.179,0,,,,,0.196,0.51,0,0.47,,,,
53927,20090727,-97.11,36.13,0.21,0.67,0,0.619,0.164,0.2,0,0.286,0.191,0.17,0,0,0.178,-0.22,0.208,0,,,,,0.187,0.44,0,0.405,,,,
53927,20090728,-97.11,36.13,0.202,0.61,0,0.53,0.156,0.14,0,0.262,0.186,0.13,0,0,0.175,-0.22,0.244,0,,,,,0.179,0.38,0,0.381,,,,
53927,20090729,-97.11,36.13,0.189,0.5,0,0.446,0.143,0.02,0,0.119,0.18,0.08,0,0,0.172,-0.23,0.321,0,,,,,0.166,0.26,0,0.292,,,,
53927,20090730,-97.11,36.13,0.188,0.5,0,0.446,0.143,0.03,0,0.036,0.176,0.07,0,0.03,0.17,-0.24,0.369,0,,,,,0.166,0.26,0,0.262,,,,
53927,20090731,-97.11,36.13,0.204,0.67,0,0.446,0.163,0.23,0,0.179,0.187,0.23,0,0.173,0.169,-0.22,0.357,0,,,,,0.183,0.45,0,0.31,,,,
53927,20090801,-97.11,36.13,0.218,0.82,0,0.488,0.182,0.41,0,0.321,0.198,0.39,0,0.315,0.171,-0.18,0.286,0,,,,,0.2,0.62,0,0.452,,,,
53927,20090802,-97.11,36.13,0.232,0.97,0,0.631,0.198,0.57,0,0.464,0.209,0.56,0,0.458,0.172,-0.14,0.202,0,,,,,0.215,0.77,0,0.595,,,,
53927,20090803,-97.11,36.13,0.244,1.09,0,0.774,0.212,0.7,0,0.607,0.22,0.73,0,0.601,0.174,-0.1,0.173,0,,,,,0.228,0.9,0,0.738,,,,
53927,20090804,-97.11,36.13,0.251,1.17,0,0.917,0.222,0.8,0,0.679,0.231,0.88,0,0.744,0.174,-0.06,0.137,0,,,,,0.237,0.99,0,0.881,,,,
53927,20090805,-97.11,36.13,0.252,1.18,0,0.964,0.226,0.84,0,0.679,0.24,1.01,0,0.887,0.175,-0.03,0.06,0,,,,,0.239,1.02,0,0.863,,,,
53927,20090806,-97.11,36.13,0.255,1.2,0,0.923,0.229,0.88,0,0.738,0.249,1.13,0,1,0.175,0,0.012,0,,,,,0.242,1.05,0,0.845,,,,
53927,20090807,-97.11,36.13,0.257,1.22,0,0.923,0.23,0.88,0,0.738,0.25,1.14,0,1,0.176,0.04,0,0.077,,,,,0.243,1.06,0,0.845,,,,
53927,20090808,-97.11,36.13,0.26,1.23,0,0.923,0.232,0.89,0,0.738,0.252,1.15,0,1,0.177,0.07,0,0.22,,,,,0.246,1.07,0,0.845,,,,
53927,20090809,-97.11,36.13,0.261,1.22,0,0.923,0.232,0.89,0,0.738,0.253,1.13,0,1,0.178,0.1,0,0.268,,,,,0.246,1.07,0,0.845,,,,
53927,20090810,-97.11,36.13,0.26,1.2,0,0.923,0.232,0.87,0,0.738,0.254,1.11,0,1,0.179,0.12,0,0.268,,,,,0.246,1.05,0,0.845,,,,
53927,20090811,-97.11,36.13,0.273,1.3,0,0.923,0.245,0.96,0,0.762,0.26,1.12,0,1,0.184,0.19,0,0.339,,,,,0.259,1.14,0,0.845,,,,
53927,20090812,-97.11,36.13,0.295,1.49,0,0.958,0.268,1.15,0,0.905,0.268,1.17,0,1,0.199,0.35,0,0.482,,,,,0.281,1.33,0,0.952,,,,
53927,20090813,-97.11,36.13,0.303,1.55,0,1,0.278,1.21,0,0.952,0.274,1.18,0,1,0.214,0.48,0,0.625,,,,,0.291,1.39,0,1,,,,
53927,20090814,-97.11,36.13,0.297,1.47,0,1,0.272,1.12,0,0.952,0.275,1.13,0,1,0.227,0.57,0,0.69,,,,,0.285,1.3,0,1,,,,
53927,20090815,-97.11,36.13,0.292,1.4,0,1,0.267,1.04,0,0.952,0.275,1.08,0,1,0.239,0.64,0,0.69,,,,,0.28,1.23,0,1,,,,
53927,20090816,-97.11,36.13,0.29,1.37,0,1,0.265,1.01,0,0.952,0.276,1.04,0,1,0.25,0.72,0,0.786,,,,,0.278,1.19,0,1,,,,
53927,20090817,-97.11,36.13,0.289,1.36,0,1,0.265,1,0,0.952,0.277,1.02,0,1,0.262,0.79,0,0.929,,,,,0.277,1.18,0,1,,,,
53927,20090818,-97.11,36.13,0.284,1.31,0,1,0.26,0.94,0,0.917,0.275,0.98,0,1,0.271,0.83,0,1,,,,,0.272,1.13,0,1,,,,
53927,20090819,-97.11,36.13,0.292,1.39,0,1,0.266,0.98,0,0.917,0.279,0.98,0,1,0.28,0.84,0,1,,,,,0.279,1.18,0,1,,,,
53927,20090820,-97.11,36.13,0.305,1.53,0,1,0.275,1.06,0,0.917,0.284,1,0,1,0.289,0.88,0,1,,,,,0.29,1.28,0,1,,,,
53927,20090821,-97.11,36.13,0.319,1.68,0,1,0.287,1.16,0,0.917,0.29,1.02,0,1,0.298,0.93,0,1,,,,,0.303,1.4,0,1,,,,
53927,20090822,-97.11,36.13,0.331,1.81,0,1,0.3,1.25,0,0.917,0.294,1.04,0,1,0.306,0.97,0,1,,,,,0.315,1.51,0,1,,,,
53927,20090823,-97.11,36.13,0.342,1.92,0,1,0.31,1.34,0,0.917,0.298,1.06,0,1,0.312,1,0,1,,,,,0.326,1.6,0,1,,,,
53927,20090824,-97.11,36.13,0.354,2.04,0,1,0.321,1.42,0,0.917,0.302,1.08,0,1,0.318,1.02,0,1,,,,,0.338,1.7,0,1,,,,
53927,20090825,-97.11,36.13,0.36,2.09,0,1,0.327,1.46,0,1,0.305,1.09,0,1,0.322,1.03,0,1,,,,,0.343,1.74,0,1,,,,
53927,20090826,-97.11,36.13,0.344,1.94,0,1,0.312,1.32,0,1,0.3,1.04,0,1,0.317,0.97,0,1,,,,,0.328,1.59,0,1,,,,
53927,20090827,-97.11,36.13,0.323,1.73,0,1,0.293,1.15,0,1,0.295,0.97,0,1,0.311,0.91,0,1,,,,,0.308,1.41,0,1,,,,
53927,20090828,-97.11,36.13,0.308,1.57,0,1,0.28,1.03,0,1,0.289,0.91,0,1,0.306,0.84,0,1,,,,,0.294,1.27,0,1,,,,
53927,20090829,-97.11,36.13,0.297,1.44,0,1,0.27,0.93,0,1,0.286,0.85,0,1,0.301,0.79,0,1,,,,,0.283,1.16,0,1,,,,
53927,20090830,-97.11,36.13,0.287,1.32,0,1,0.26,0.83,0,1,0.282,0.8,0,1,0.298,0.73,0,1,,,,,0.273,1.05,0,1,,,,
53927,20090831,-97.11,36.13,0.276,1.19,0,1,0.249,0.73,0,0.929,0.278,0.74,0,1,0.296,0.69,0,1,,,,,0.262,0.94,0,1,,,,
53927,20090901,-97.11,36.13,0.264,1.06,0,1,0.239,0.62,0,0.786,0.275,0.67,0,1,0.294,0.65,0,0.911,,,,,0.252,0.82,0,0.923,,,,
53927,20090902,-97.11,36.13,0.254,0.94,0,0.935,0.23,0.53,0,0.643,0.271,0.61,0,0.917,0.292,0.62,0,0.768,,,,,0.242,0.72,0,0.78,,,,
53927,20090903,-97.11,36.13,0.244,0.83,0,0.798,0.222,0.45,0,0.5,0.268,0.56,0,0.774,0.291,0.59,0,0.625,,,,,0.233,0.63,0,0.637,,,,
53927,20090904,-97.11,36.13,0.23,0.69,0,0.655,0.207,0.32,0,0.357,0.264,0.5,0,0.631,0.289,0.56,0,0.482,,,,,0.219,0.49,0,0.494,,,,
53927,20090905,-97.11,36.13,0.216,0.54,0,0.512,0.192,0.19,0,0.214,0.26,0.45,0,0.488,0.287,0.54,0,0.339,,,,,0.204,0.36,0,0.351,,,,
53927,20090906,-97.11,36.13,0.204,0.42,0,0.369,0.18,0.07,0,0.071,0.255,0.4,0,0.345,0.286,0.52,0,0.196,,,,,0.192,0.24,0,0.208,,,,
53927,20090907,-97.11,36.13,0.193,0.32,0,0.226,0.169,-0.03,0,0,0.251,0.36,0,0.202,0.284,0.51,0,0.054,,,,,0.181,0.14,0,0.065,,,,
53927,20090908,-97.11,36.13,0.185,0.23,0,0.083,0.159,-0.12,0,0,0.247,0.33,0,0.06,0.282,0.5,0,0,,,,,0.172,0.05,0,0,,,,
53927,20090909,-97.11,36.13,0.183,0.22,0,0.083,0.16,-0.12,0,0.077,0.242,0.3,0,0,0.281,0.5,0,0,,,,,0.172,0.04,0,0.077,,,,
53927,20090910,-97.11,36.13,0.193,0.32,0,0.22,0.174,-0.02,0,0.22,0.243,0.3,0,0.048,0.28,0.5,0,0.071,,,,,0.184,0.15,0,0.22,,,,
53927,20090911,-97.11,36.13,0.216,0.56,0,0.363,0.199,0.18,0,0.363,0.25,0.37,0,0.19,0.282,0.53,0,0.214,,,,,0.207,0.36,0,0.363,,,,
53927,20090912,-97.11,36.13,0.24,0.8,0,0.506,0.224,0.39,0,0.506,0.258,0.43,0,0.333,0.285,0.57,0,0.357,,,,,0.232,0.58,0,0.506,,,,
53927,20090913,-97.11,36.13,0.263,1.03,0,0.649,0.25,0.61,0,0.649,0.266,0.5,0,0.476,0.289,0.61,0,0.5,,,,,0.257,0.8,0,0.649,,,,
53927,20090914,-97.11,36.13,0.287,1.27,0,0.792,0.277,0.84,0,0.792,0.274,0.58,0,0.619,0.293,0.65,0,0.643,,,,,0.282,1.03,0,0.792,,,,
53927,20090915,-97.11,36.13,0.312,1.53,0,0.935,0.305,1.09,0,0.935,0.284,0.66,0,0.762,0.298,0.7,0,0.786,,,,,0.309,1.28,0,0.935,,,,
53927,20090916,-97.11,36.13,0.331,1.72,0,1,0.323,1.25,0,1,0.295,0.75,0,0.905,0.302,0.75,0,0.929,,,,,0.327,1.45,0,1,,,,
53927,20090917,-97.11,36.13,0.338,1.79,0,1,0.329,1.3,0,1,0.301,0.8,0,1,0.307,0.79,0,1,,,,,0.334,1.52,0,1,,,,
53927,20090918,-97.11,36.13,0.333,1.73,0,1,0.323,1.27,0,1,0.3,0.8,0,1,0.308,0.81,0,1,,,,,0.328,1.47,0,1,,,,
53927,20090919,-97.11,36.13,0.326,1.66,0,1,0.316,1.21,0,1,0.3,0.81,0,1,0.308,0.83,0,1,,,,,0.321,1.41,0,1,,,,
53927,20090920,-97.11,36.13,0.319,1.58,0,1,0.308,1.14,0,1,0.3,0.81,0,1,0.307,0.84,0,1,,,,,0.314,1.34,0,1,,,,
53927,20090921,-97.11,36.13,0.312,1.49,0,1,0.298,1.05,0,1,0.299,0.8,0,1,0.306,0.85,0,1,,,,,0.305,1.26,0,1,,,,
53927,20090922,-97.11,36.13,0.304,1.4,0,1,0.286,0.94,0,1,0.297,0.79,0,1,0.305,0.86,0,1,,,,,0.295,1.16,0,1,,,,
53927,20090923,-97.11,36.13,0.297,1.3,0,1,0.279,0.87,0,1,0.295,0.77,0,1,0.303,0.86,0,1,,,,,0.288,1.08,0,1,,,,
53927,20090924,-97.11,36.13,0.29,1.21,0,1,0.273,0.79,0,1,0.293,0.74,0,1,0.302,0.87,0,1,,,,,0.281,0.99,0,1,,,,
53927,20090925,-97.11,36.13,0.283,1.11,0,1,0.266,0.72,0,1,0.291,0.72,0,1,0.3,0.87,0,1,,,,,0.274,0.9,0,1,,,,
53927,20090926,-97.11,36.13,0.276,1.02,0,1,0.259,0.63,0,1,0.289,0.68,0,1,0.299,0.87,0,1,,,,,0.267,0.82,0,1,,,,
53927,20090927,-97.11,36.13,0.267,0.92,0,1,0.251,0.55,0,0.893,0.287,0.65,0,1,0.298,0.87,0,1,,,,,0.259,0.72,0,1,,,,
53927,20090928,-97.11,36.13,0.258,0.82,0,1,0.242,0.46,0,0.75,0.284,0.62,0,1,0.297,0.87,0,1,,,,,0.25,0.63,0,0.899,,,,
53927,20090929,-97.11,36.13,0.247,0.7,0,0.935,0.232,0.37,0,0.607,0.281,0.59,0,1,0.296,0.87,0,1,,,,,0.24,0.52,0,0.756,,,,
53927,20090930,-97.11,36.13,0.235,0.58,0,0.792,0.218,0.24,0,0.464,0.278,0.56,0,1,0.295,0.87,0,1,,,,,0.226,0.4,0,0.613,,,,
53927,20091001,-97.11,36.13,0.223,0.46,0,0.649,0.204,0.11,0,0.321,0.275,0.53,0,1,0.293,0.87,0,1,,,,,0.213,0.28,0,0.47,,,,
53927,20091002,-97.11,36.13,0.21,0.34,0,0.506,0.19,-0.01,0,0.179,0.271,0.49,0,0.911,0.292,0.87,0,1,,,,,0.2,0.16,0,0.327,,,,
53927,20091003,-97.11,36.13,0.198,0.22,0,0.363,0.177,-0.12,0,0.036,0.266,0.45,0,0.768,0.291,0.87,0,1,,,,,0.188,0.04,0,0.185,,,,
53927,20091004,-97.11,36.13,0.187,0.11,0,0.22,0.167,-0.22,0,0,0.26,0.41,0,0.625,0.289,0.87,0,1,,,,,0.177,-0.06,0,0.042,,,,
53927,20091005,-97.11,36.13,0.183,0.07,0,0.077,0.169,-0.19,0,0.113,0.254,0.36,0,0.482,0.288,0.87,0,1,,,,,0.176,-0.06,0,0.03,,,,
53927,20091006,-97.11,36.13,0.181,0.04,0,0,0.174,-0.15,0,0.119,0.249,0.32,0,0.339,0.286,0.87,0,1,,,,,0.177,-0.05,0,0.03,,,,
53927,20091007,-97.11,36.13,0.18,0.03,0,0,0.181,-0.09,0,0.119,0.245,0.28,0,0.196,0.285,0.87,0,1,,,,,0.18,-0.03,0,0.03,,,,
53927,20091008,-97.11,36.13,0.181,0.03,0,0,0.186,-0.05,0,0.12,0.24,0.25,0,0.054,0.284,0.87,0,1,,,,,0.183,-0.01,0,0.03,,,,
53927,20091009,-97.11,36.13,0.211,0.32,0,0.132,0.215,0.23,0,0.257,0.247,0.32,0,0.132,0.289,0.9,0,1,,,,,0.213,0.28,0,0.168,,,,
53927,20091010,-97.11,36.13,0.246,0.67,0,0.275,0.246,0.54,0,0.401,0.256,0.43,0,0.275,0.298,0.96,0,1,,,,,0.246,0.61,0,0.311,,,,
53927,20091011,-97.11,36.13,0.276,0.96,0,0.419,0.276,0.83,0,0.545,0.265,0.53,0,0.419,0.307,1.01,0,1,,,,,0.276,0.9,0,0.455,,,,
53927,20091012,-97.11,36.13,0.299,1.17,0,0.563,0.294,1,0,0.575,0.274,0.63,0,0.563,0.314,1.05,0,1,,,,,0.296,1.09,0,0.569,,,,
53927,20091013,-97.11,36.13,0.322,1.38,0,0.707,0.311,1.17,0,0.713,0.283,0.73,0,0.707,0.321,1.08,0,1,,,,,0.316,1.28,0,0.713,,,,
53927,20091014,-97.11,36.13,0.345,1.59,0,0.85,0.328,1.33,0,0.856,0.293,0.84,0,0.85,0.328,1.11,0,1,,,,,0.336,1.47,0,0.856,,,,
53927,20091015,-97.11,36.13,0.367,1.8,0,0.988,0.346,1.51,0,0.994,0.303,0.95,0,0.988,0.335,1.14,0,1,,,,,0.357,1.66,0,0.994,,,,
53927,20091016,-97.11,36.13,0.361,1.72,0,1,0.343,1.47,0,1,0.304,0.96,0,1,0.336,1.12,0,1,,,,,0.352,1.6,0,1,,,,
53927,20091017,-97.11,36.13,0.349,1.58,0,1,0.336,1.4,0,1,0.302,0.95,0,1,0.332,1.08,0,1,,,,,0.343,1.49,0,1,,,,
53927,20091018,-97.11,36.13,0.342,1.49,0,1,0.33,1.33,0,1,0.301,0.93,0,1,0.328,1.03,0,1,,,,,0.336,1.41,0,1,,,,
53927,20091019,-97.11,36.13,0.336,1.42,0,1,0.324,1.26,0,1,0.301,0.92,0,1,0.325,0.99,0,1,,,,,0.33,1.34,0,1,,,,
53927,20091020,-97.11,36.13,0.329,1.34,0,1,0.317,1.18,0,1,0.301,0.9,0,1,0.322,0.96,0,1,,,,,0.323,1.27,0,1,,,,
53927,20091021,-97.11,36.13,0.321,1.25,0,1,0.307,1.07,0,1,0.3,0.86,0,1,0.32,0.93,0,1,,,,,0.314,1.17,0,1,,,,
53927,20091022,-97.11,36.13,0.314,1.18,0,1,0.299,0.98,0,1,0.299,0.83,0,1,0.317,0.86,0,0.946,,,,,0.307,1.08,0,1,,,,
53927,20091023,-97.11,36.13,0.312,1.16,0,1,0.298,0.95,0,1,0.299,0.8,0,1,0.315,0.79,0,0.804,,,,,0.305,1.05,0,1,,,,
53927,20091024,-97.11,36.13,0.311,1.15,0,1,0.297,0.93,0,1,0.3,0.77,0,1,0.315,0.72,0,0.661,,,,,0.304,1.03,0,1,,,,
53927,20091025,-97.11,36.13,0.31,1.14,0,1,0.296,0.91,0,1,0.3,0.75,0,1,0.315,0.65,0,0.518,,,,,0.303,1.01,0,1,,,,
53927,20091026,-97.11,36.13,0.309,1.15,0,1,0.296,0.9,0,1,0.301,0.74,0,1,0.315,0.59,0,0.375,,,,,0.302,1.01,0,1,,,,
53927,20091027,-97.11,36.13,0.309,1.15,0,1,0.296,0.9,0,1,0.301,0.73,0,1,0.315,0.53,0,0.232,,,,,0.303,1,0,1,,,,
53927,20091028,-97.11,36.13,0.309,1.16,0,1,0.297,0.91,0,1,0.302,0.72,0,1,0.315,0.48,0,0.089,,,,,0.303,1.01,0,1,,,,
53927,20091029,-97.11,36.13,0.308,1.15,0,1,0.295,0.88,0,1,0.302,0.72,0,1,0.315,0.45,0,0,,,,,0.301,1,0,1,,,,
53927,20091030,-97.11,36.13,0.328,1.41,0,1,0.304,1,0,1,0.306,0.76,0,1,0.321,0.48,0,0.143,,,,,0.316,1.18,0,1,,,,
53927,20091031,-97.11,36.13,0.341,1.6,0,1,0.313,1.13,0,1,0.311,0.82,0,1,0.328,0.51,0,0.286,,,,,0.327,1.34,0,1,,,,
53927,20091101,-97.11,36.13,0.35,1.75,0,1,0.32,1.24,0,1,0.316,0.86,0,1,0.334,0.55,0,0.429,,,,,0.335,1.47,0,1,,,,
53927,20091102,-97.11,36.13,0.356,1.9,0,1,0.326,1.35,0,1,0.319,0.9,0,1,0.341,0.59,0,0.571,,,,,0.341,1.59,0,1,,,,
53927,20091103,-97.11,36.13,0.361,2.03,0,1,0.331,1.44,0,1,0.321,0.92,0,1,0.349,0.63,0,0.714,,,,,0.346,1.71,0,1,,,,
53927,20091104,-97.11,36.13,0.366,2.15,0,1,0.336,1.54,0,1,0.324,0.94,0,1,0.355,0.66,0,0.857,,,,,0.351,1.81,0,1,,,,
53927,20091105,-97.11,36.13,0.37,2.24,0,1,0.341,1.63,0,1,0.326,0.96,0,1,0.358,0.67,0,1,,,,,0.355,1.91,0,1,,,,
53927,20091106,-97.11,36.13,0.346,2.02,0,1,0.328,1.5,0,1,0.322,0.92,0,1,0.354,0.65,0,1,,,,,0.337,1.74,0,1,,,,
53927,20091107,-97.11,36.13,0.33,1.86,0,1,0.314,1.37,0,1,0.317,0.88,0,1,0.349,0.62,0,1,,,,,0.322,1.6,0,1,,,,
53927,20091108,-97.11,36.13,0.317,1.73,0,1,0.302,1.23,0,1,0.313,0.84,0,1,0.343,0.59,0,1,,,,,0.309,1.47,0,1,,,,
53927,20091109,-97.11,36.13,0.306,1.61,0,1,0.29,1.09,0,1,0.31,0.83,0,1,0.337,0.56,0,1,,,,,0.298,1.36,0,1,,,,
53927,20091110,-97.11,36.13,0.3,1.55,0,1,0.283,1.01,0,1,0.309,0.82,0,1,0.331,0.52,0,1,,,,,0.291,1.29,0,1,,,,
53927,20091111,-97.11,36.13,0.305,1.71,0,1,0.285,1.1,0,1,0.31,0.86,0,1,0.329,0.52,0,1,,,,,0.295,1.42,0,1,,,,
53927,20091112,-97.11,36.13,0.309,1.87,0,1,0.288,1.21,0,1,0.313,0.91,0,1,0.332,0.53,0,1,,,,,0.299,1.55,0,1,,,,
53927,20091113,-97.11,36.13,0.315,2.02,0,1,0.292,1.32,0,1,0.315,0.95,0,1,0.336,0.55,0,1,,,,,0.304,1.68,0,1,,,,
53927,20091114,-97.11,36.13,0.32,2.18,0,1,0.297,1.44,0,1,0.316,1,0,1,0.341,0.57,0,1,,,,,0.308,1.81,0,1,,,,
53927,20091115,-97.11,36.13,0.326,2.34,0,1,0.303,1.59,0,1,0.318,1.04,0,1,0.345,0.6,0,1,,,,,0.314,1.97,0,1,,,,
53927,20091116,-97.11,36.13,0.34,2.69,0,1,0.317,1.88,0,1,0.323,1.12,0,1,0.351,0.63,0,1,,,,,0.329,2.3,0,1,,,,
53927,20091117,-97.11,36.13,0.353,3.01,0,1,0.329,2.17,0,1,0.329,1.2,0,1,0.357,0.67,0,1,,,,,0.341,2.62,0,1,,,,
53927,20091118,-97.11,36.13,0.355,3.11,0,1,0.333,2.29,0,1,0.331,1.24,0,1,0.36,0.69,0,1,,,,,0.344,2.74,0,1,,,,
53927,20091119,-97.11,36.13,0.356,3.17,0,1,0.336,2.39,0,1,0.333,1.26,0,1,0.361,0.7,0,1,,,,,0.346,2.84,0,1,,,,
53927,20091120,-97.11,36.13,0.357,3.21,0,1,0.338,2.46,0,1,0.333,1.27,0,1,0.363,0.72,0,1,,,,,0.347,2.9,0,1,,,,
53927,20091121,-97.11,36.13,0.358,3.25,0,1,0.341,2.53,0,1,0.334,1.29,0,1,0.364,0.74,0,1,,,,,0.349,2.97,0,1,,,,
53927,20091122,-97.11,36.13,0.359,3.28,0,1,0.343,2.59,0,1,0.336,1.3,0,1,0.366,0.77,0,1,,,,,0.351,3.02,0,1,,,,
53927,20091123,-97.11,36.13,0.352,3.12,0,1,0.338,2.5,0,1,0.333,1.28,0,1,0.366,0.8,0,1,,,,,0.345,2.89,0,1,,,,
53927,20091124,-97.11,36.13,0.344,2.91,0,1,0.332,2.36,0,1,0.33,1.23,0,1,0.366,0.82,0,1,,,,,0.338,2.71,0,1,,,,
53927,20091125,-97.11,36.13,0.336,2.71,0,1,0.326,2.2,0,1,0.327,1.2,0,1,0.364,0.83,0,1,,,,,0.331,2.53,0,1,,,,
53927,20091126,-97.11,36.13,0.329,2.53,0,1,0.319,2.03,0,1,0.324,1.17,0,1,0.36,0.82,0,1,,,,,0.324,2.35,0,1,,,,
53927,20091127,-97.11,36.13,0.323,2.35,0,1,0.313,1.89,0,1,0.322,1.14,0,1,0.356,0.81,0,1,,,,,0.318,2.18,0,1,,,,
53927,20091128,-97.11,36.13,0.316,2.18,0,1,0.307,1.74,0,1,0.32,1.12,0,1,0.352,0.79,0,1,,,,,0.312,2.02,0,1,,,,
53927,20091129,-97.11,36.13,0.31,1.99,0,1,0.301,1.59,0,1,0.318,1.09,0,1,0.347,0.76,0,1,,,,,0.305,1.84,0,1,,,,
53927,20091130,-97.11,36.13,0.304,1.81,0,1,0.294,1.44,0,1,0.316,1.06,0,1,0.342,0.73,0,1,,,,,0.299,1.67,0,1,,,,
53927,20091201,-97.11,36.13,0.298,1.65,0,1,0.288,1.29,0,1,0.315,1.03,0,1,0.337,0.7,0,1,,,,,0.293,1.5,0,1,,,,
53927,20091202,-97.11,36.13,0.293,1.5,0,1,0.283,1.17,0,1,0.313,1,0,1,0.334,0.68,0,1,,,,,0.288,1.36,0,1,,,,
53927,20091203,-97.11,36.13,0.289,1.39,0,1,0.278,1.06,0,1,0.311,0.97,0,1,0.332,0.67,0,1,,,,,0.284,1.24,0,1,,,,
53927,20091204,-97.11,36.13,0.286,1.3,0,1,0.274,0.98,0,1,0.31,0.95,0,1,0.33,0.66,0,1,,,,,0.28,1.14,0,1,,,,
53927,20091205,-97.11,36.13,0.282,1.22,0,1,0.271,0.9,0,1,0.308,0.92,0,1,0.328,0.65,0,1,,,,,0.277,1.06,0,1,,,,
53927,20091206,-97.11,36.13,0.279,1.15,0,1,0.268,0.83,0,1,0.307,0.89,0,1,0.326,0.63,0,1,,,,,0.274,0.98,0,1,,,,
53927,20091207,-97.11,36.13,0.276,1.09,0,1,0.266,0.77,0,1,0.305,0.87,0,1,0.325,0.62,0,1,,,,,0.271,0.91,0,1,,,,
53927,20091208,-97.11,36.13,0.274,1.04,0,1,0.264,0.73,0,1,0.304,0.85,0,1,0.323,0.61,0,1,,,,,0.269,0.86,0,1,,,,
53927,20091209,-97.11,36.13,0.273,0.99,0,1,0.263,0.7,0,1,0.303,0.83,0,1,0.322,0.59,0,1,,,,,0.268,0.83,0,1,,,,
53927,20091210,-97.11,36.13,0.271,0.94,0,1,0.262,0.67,0,1,0.302,0.82,0,1,0.321,0.57,0,0.899,,,,,0.267,0.79,0,1,,,,
53927,20091211,-97.11,36.13,0.269,0.9,0,1,0.261,0.64,0,1,0.3,0.8,0,1,0.32,0.54,0,0.756,,,,,0.265,0.76,0,1,,,,
53927,20091212,-97.11,36.13,0.268,0.86,0,1,0.261,0.61,0,1,0.299,0.79,0,1,0.319,0.51,0,0.613,,,,,0.265,0.73,0,1,,,,
53927,20091213,-97.11,36.13,0.268,0.84,0,1,0.26,0.59,0,1,0.298,0.78,0,1,0.319,0.49,0,0.47,,,,,0.264,0.71,0,1,,,,
53927,20091214,-97.11,36.13,0.268,0.82,0,1,0.26,0.57,0,1,0.298,0.78,0,1,0.318,0.47,0,0.327,,,,,0.264,0.69,0,1,,,,
53927,20091215,-97.11,36.13,0.267,0.8,0,1,0.26,0.55,0,1,0.297,0.77,0,1,0.318,0.45,0,0.202,,,,,0.264,0.67,0,1,,,,